Regional Weather Roundup
Issued by NWS Kansas City/Pleasant Hill, MO

Home | Current Version | Previous Version | Text Only | Print | Product List | Glossary On
Versions: 1 2 3 4 5 6 7 8 9 10 11 12 13 14 15 16 17 18 19 20 21 22 23 24 25 26 27 28 29 30 31 32 33 34 35 36 37 38 39 40 41 42 43 44 45 46 47 48 49 50
000
ASUS43 KEAX 210910
RWREAX

WEATHER ROUNDUP FOR EASTERN KANSAS AND NORTHWEST MISSOURI
NATIONAL WEATHER SERVICE KANSAS CITY/PLEASANT HILL MO
400 AM CDT TUE OCT 21 2014

KSZ040-057-103>105-MOZ028-029-037-043-211000-
...KANSAS CITY METROPOLITAN AREA...

CITY           SKY/WX    TMP DP  RH WIND       PRES   REMARKS
K.C. INTL      CLEAR     45  41  86 W6        30.08S
K.C. DOWNTOWN  CLEAR     48  45  89 NW3       30.08S
LEES SUMMIT    CLEAR     48  44  86 SW3       30.08S
OLATHE - IXD   CLEAR     47  43  86 CALM      30.09S
OLATHE - OJC   CLEAR     49  45  86 CALM      30.08S
LAWRENCE       CLEAR     38  36  92 NW5       30.09S WCI  34

$$

MOZ001>008-011>017-020>025-030>033-038>040-044>046-053-054-211000-
...NORTHERN AND CENTRAL MISSOURI...

CITY           SKY/WX    TMP DP  RH WIND       PRES   REMARKS
ST. JOSEPH     PTCLDY    38  37  97 N3        30.09S
MOSBY          SUNNY     41  41 100 CALM      30.08S FOG
WHITEMAN AFB   CLEAR     45  41  88 SW1       30.06F
CLINTON        CLEAR     43  43 100 CALM      30.08S
SEDALIA        CLEAR     49  43  80 SW5       30.07F
WARSAW         NOT AVBL
MARSHALL       CLEAR     46  45  93 CALM      30.08S
CHILLICOTHE      N/A     43  40  89 CALM      30.09S
MOBERLY        CLEAR     46  41  81 W5        30.07S
KIRKSVILLE     CLEAR     43  42  97 NW3       30.08R

$$

MOZ041-047>049-056>058-063>065-088>090-097-211000-
...EASTERN AND SOUTHERN MISSOURI...

CITY           SKY/WX    TMP DP  RH WIND       PRES   REMARKS
ST. LOUIS INTL CLEAR     50  44  80 W3        30.04S
SPIRIT OF STL  FAIR      44  42  93 CALM      30.04S
COLUMBIA       CLEAR     51  43  74 W6        30.06F
JEFFERSON CITY CLEAR     44  42  93 CALM      30.07S
MEXICO         CLEAR     48  46  93 W5        30.06S
ROLLA          CLEAR     47  42  83 SW3       30.06S
LEBANON        CLEAR     48  45  87 CALM      30.08F
OSAGE BEACH    CLEAR     45  39  81 CALM      30.08S
SPRINGFIELD    CLEAR     46  43  89 S3        30.08F
BRANSON        FOG       54  54 100 CALM      30.10S VSB<1/4
NEVADA         CLEAR     48  48 100 SW3       30.09S
JOPLIN         CLEAR     50  50 100 NE5       30.08F FOG
WEST PLAINS    CLEAR     48  44  86 CALM      30.09S

$$

IAZ060-094-KSZ022-034>040-054-083-096-NEZ052-066-093-211000-
...KANSAS...SOUTHEAST NEBRASKA AND IOWA...

CITY           SKY/WX    TMP DP  RH WIND       PRES   REMARKS
TOPEKA         PTCLDY    43  42  97 CALM      30.09S
MANHATTAN      CLEAR     40  39  97 CALM      30.09S
EMPORIA        CLEAR     47  46  97 NW3       30.09S
CHANUTE        CLEAR     47  46  97 N3        30.08F
WICHITA        CLEAR     52  47  83 CALM      30.07S
OMAHA          CLEAR     44  40  85 SE6       30.09S
LINCOLN        CLEAR     40  36  86 N3        30.11R
FALLS CITY     CLEAR     41  38  89 CALM      30.09S
LAMONI         CLEAR     47  39  74 N5        30.08S
DES MOINES     CLEAR     46  42  86 N3        30.09R

$$



USA.gov is the U.S. government's official web portal to all federal, state and local government web resources and services.